THORAD DELTA 1 DEB, 8145

Orbit data source: Space-Track

THORAD DELTA 1 DEB, 8145 is space debris in SSO originally from a launch on Fri, 15 Nov 1974 UTC launched from the Air Force Western Test Range (AFWTR). Debris objects in space refer to the collection of defunct objects orbiting the Earth. Examples of debris include non-operational satellites, rocket bodies, and fragments generated from explosions, collisions, or faulty payload assembly.

Loading next visibility...
Identifier
8145, 1974-089P
Orbit
SSO
Country
Flag of USUS
Related business
Manufacturer
Unknown
Mission
Spacecraft
Bus & Motor
Unknown
Mass
Unknown
Launch date (UTC)
1974-11-15 (51 years ago)
Launch vehicle
Unknown
Launch site
Air Force Western Test Range (AFWTR)
Object type
Payload
Rocket body
Debris
Shape & HBR
Unknown shape, 0.2 m
Radar Cross Section
Medium (>0.1 m² and <1 m²)

Expand to show TLE details & history
Last TLE update: 12 hours ago

TLE from 12 hours ago
0 THORAD DELTA 1 DEB
1  8145U 74089P   25302.53300110  .00000105  00000-0  83931-3 0  9994
2  8145 101.1071 155.8211 0028500 247.0473 183.7775 12.60586895341192
Epoch: 2025-10-29T12:47Z
TLE epoch observation values (Epoch: 2025-10-29T12:47:31.295Z)
Latitude
68.00544°
Longitude
-103.08852°
Altitude
1,454.332 km
Speed
7.131 km/s
True Right ascension
08h 27m 35s
True Declination
67° 53' 47"
Sunlit
Object was in daylight at epoch
Visualization orbit readout
Latitude
Unknown
Longitude
Unknown
Altitude
Unknown
Speed
Unknown
Apparent Right ascension
Unknown
Apparent Declination
Unknown
Sunlit
N/A
Visualization observer readout
Local Sidereal Time
20:03:42
Azimuth
Unknown
Elevation
Unknown
Doppler factor
Unknown
Orbital elements
Apogee altitude
1,440.238 km
Perigee altitude
1,395.8 km
Semi-major axis
7,796.156 km
Eccentricity
0.00285
Inclination
101.1071°
RAAN
155.8211°
Arg. of periapsis
247.0473°
True anomaly
183.75606°
Mean anomaly
183.7775°
Eccentric anomaly
183.76677°
Mean motion
3.15299 °/min
Orbital period
114.18 mins
BSTAR
0.00083931
Loading maneuver chart data...
Computing Atmospheric mass density...

Documentation

Showing up to 5 results
|